Time,TemperatureF,DewpointF,PressureIn,WindDirection,WindDirectionDegrees,WindSpeedMPH,WindSpeedGustMPH,Humidity,HourlyPrecipIn,Conditions,Clouds,dailyrainin,SoftwareType,DateUTC
2013-04-16 00:00:00,57.8,14.6,29.76,SE,135,1.3,1.3,18,0.00,,---,0.00,VWS V14.01,2013-04-16 06:00:00,
2013-04-16 00:04:00,57.8,14.6,29.76,SE,135,1.3,1.3,18,0.00,,---,0.00,VWS V14.01,2013-04-16 06:04:00,
2013-04-16 00:09:00,57.8,14.6,29.76,SE,135,1.3,1.3,18,0.00,,---,0.00,VWS V14.01,2013-04-16 06:09:00,
2013-04-16 00:20:00,57.8,14.6,29.76,SE,135,1.3,1.3,18,0.00,,---,0.00,VWS V14.01,2013-04-16 06:20:00,
2013-04-16 00:27:00,57.8,14.6,29.76,SE,135,1.3,1.3,18,0.00,,---,0.00,VWS V14.01,2013-04-16 06:27:00,
2013-04-16 00:41:00,57.8,14.6,29.76,SE,135,1.3,1.3,18,0.00,,---,0.00,VWS V14.01,2013-04-16 06:41:00,
2013-04-16 00:55:00,57.8,14.6,29.76,SE,135,1.3,1.3,18,0.00,,---,0.00,VWS V14.01,2013-04-16 06:55:00,
2013-04-16 01:00:00,58.0,14.8,29.76,SSE,158,1.8,1.8,18,0.00,,---,0.00,VWS V14.01,2013-04-16 07:00:00,
2013-04-16 01:05:00,58.0,16.0,29.76,SSE,158,1.3,1.3,19,0.00,,---,0.00,VWS V14.01,2013-04-16 07:05:00,
2013-04-16 01:10:00,58.0,16.0,29.75,SSE,158,0.4,0.4,19,0.00,,---,0.00,VWS V14.01,2013-04-16 07:10:00,
2013-04-16 01:15:00,57.8,17.0,29.75,SE,135,0.7,0.7,20,0.00,,---,0.00,VWS V14.01,2013-04-16 07:15:00,
2013-04-16 01:20:00,57.6,16.9,29.75,SE,135,0.7,0.7,20,0.00,,---,0.00,VWS V14.01,2013-04-16 07:20:00,
2013-04-16 01:25:00,57.4,16.7,29.76,SE,135,0.4,0.4,20,0.00,,---,0.00,VWS V14.01,2013-04-16 07:25:00,
2013-04-16 01:30:00,57.2,16.5,29.76,SE,135,0.0,0.0,20,0.00,,---,0.00,VWS V14.01,2013-04-16 07:30:00,
2013-04-16 01:35:00,57.1,16.4,29.75,South,180,1.3,1.3,20,0.00,,---,0.00,VWS V14.01,2013-04-16 07:35:00,
2013-04-16 01:40:00,58.9,17.9,29.75,SSW,202,11.0,11.0,20,0.00,,---,0.00,VWS V14.01,2013-04-16 07:40:00,
2013-04-16 01:45:00,60.3,20.2,29.75,SSW,202,8.7,8.7,21,0.00,,---,0.00,VWS V14.01,2013-04-16 07:45:00,
2013-04-16 01:50:00,60.5,18.1,29.76,SSE,158,2.0,2.0,19,0.00,,---,0.00,VWS V14.01,2013-04-16 07:50:00,
2013-04-16 01:55:00,59.4,18.3,29.76,South,180,1.8,1.8,20,0.00,,---,0.00,VWS V14.01,2013-04-16 07:55:00,
2013-04-16 02:00:00,59.2,19.3,29.76,SSE,158,1.3,1.3,21,0.00,,---,0.00,VWS V14.01,2013-04-16 08:00:00,
2013-04-16 02:05:00,58.7,17.8,29.76,SSE,158,1.6,1.6,20,0.00,,---,0.00,VWS V14.01,2013-04-16 08:05:00,
2013-04-16 02:10:00,58.1,17.3,29.76,SSE,158,0.7,0.7,20,0.00,,---,0.00,VWS V14.01,2013-04-16 08:10:00,
2013-04-16 02:15:00,57.2,17.6,29.76,SE,135,0.9,0.9,21,0.00,,---,0.00,VWS V14.01,2013-04-16 08:15:00,
2013-04-16 02:20:00,56.7,17.2,29.76,SE,135,0.7,1.1,21,0.00,,---,0.00,VWS V14.01,2013-04-16 08:20:00,
2013-04-16 02:25:00,56.5,17.1,29.76,SSE,158,0.4,0.4,21,0.00,,---,0.00,VWS V14.01,2013-04-16 08:25:00,
2013-04-16 02:30:00,56.2,16.8,29.76,SE,135,0.4,0.4,21,0.00,,---,0.00,VWS V14.01,2013-04-16 08:30:00,
2013-04-16 02:35:00,55.8,17.5,29.76,SE,135,0.4,0.4,22,0.00,,---,0.00,VWS V14.01,2013-04-16 08:35:00,
2013-04-16 02:40:00,55.3,17.1,29.76,SE,135,0.7,0.7,22,0.00,,---,0.00,VWS V14.01,2013-04-16 08:40:00,
2013-04-16 02:45:00,55.3,17.1,29.76,SE,135,1.1,1.1,22,0.00,,---,0.00,VWS V14.01,2013-04-16 08:45:00,
2013-04-16 02:50:00,55.1,18.0,29.76,SSE,158,1.3,1.3,23,0.00,,---,0.00,VWS V14.01,2013-04-16 08:50:00,
2013-04-16 02:55:00,55.3,17.1,29.76,SE,135,0.4,0.4,22,0.00,,---,0.00,VWS V14.01,2013-04-16 08:55:00,
2013-04-16 03:00:00,55.4,17.2,29.76,SE,135,0.0,0.0,22,0.00,,---,0.00,VWS V14.01,2013-04-16 09:00:00,
2013-04-16 03:05:00,55.4,17.2,29.76,ESE,112,0.4,0.4,22,0.00,,---,0.00,VWS V14.01,2013-04-16 09:05:00,
2013-04-16 03:10:00,55.4,17.2,29.76,ESE,112,0.2,0.2,22,0.00,,---,0.00,VWS V14.01,2013-04-16 09:10:00,
2013-04-16 03:15:00,55.3,18.1,29.76,ESE,112,0.7,0.7,23,0.00,,---,0.00,VWS V14.01,2013-04-16 09:15:00,
2013-04-16 03:20:00,55.4,17.2,29.76,SE,135,2.0,2.0,22,0.00,,---,0.00,VWS V14.01,2013-04-16 09:20:00,
2013-04-16 03:25:00,55.3,17.1,29.76,SE,135,0.2,0.2,22,0.00,,---,0.00,VWS V14.01,2013-04-16 09:25:00,
2013-04-16 03:30:00,55.3,18.1,29.76,SE,135,0.2,0.2,23,0.00,,---,0.00,VWS V14.01,2013-04-16 09:30:00,
2013-04-16 03:35:00,55.1,18.0,29.76,SSE,158,0.4,0.4,23,0.00,,---,0.00,VWS V14.01,2013-04-16 09:35:00,
2013-04-16 03:40:00,54.7,17.6,29.77,SE,135,0.0,0.0,23,0.00,,---,0.00,VWS V14.01,2013-04-16 09:40:00,
2013-04-16 03:45:00,54.7,17.6,29.77,ESE,112,0.4,0.4,23,0.00,,---,0.00,VWS V14.01,2013-04-16 09:45:00,
2013-04-16 03:50:00,54.7,17.6,29.77,ESE,112,0.2,0.2,23,0.00,,---,0.00,VWS V14.01,2013-04-16 09:50:00,
2013-04-16 03:55:00,54.4,18.4,29.77,ESE,112,0.2,0.2,24,0.00,,---,0.00,VWS V14.01,2013-04-16 09:55:00,
2013-04-16 04:00:00,53.8,17.9,29.77,ESE,112,0.4,0.4,24,0.00,,---,0.00,VWS V14.01,2013-04-16 10:00:00,
2013-04-16 04:05:00,53.5,18.6,29.77,SSE,158,0.4,0.4,25,0.00,,---,0.00,VWS V14.01,2013-04-16 10:05:00,
2013-04-16 04:10:00,52.9,17.1,29.77,SE,135,0.0,0.0,24,0.00,,---,0.00,VWS V14.01,2013-04-16 10:10:00,
2013-04-16 04:15:00,52.7,17.9,29.77,ESE,112,0.2,0.4,25,0.00,,---,0.00,VWS V14.01,2013-04-16 10:15:00,
2013-04-16 04:20:00,53.1,18.2,29.78,ESE,112,1.1,1.1,25,0.00,,---,0.00,VWS V14.01,2013-04-16 10:20:00,
2013-04-16 04:25:00,53.6,18.6,29.78,East,90,0.4,0.4,25,0.00,,---,0.00,VWS V14.01,2013-04-16 10:25:00,
2013-04-16 04:30:00,53.3,18.4,29.78,ESE,112,0.4,0.4,25,0.00,,---,0.00,VWS V14.01,2013-04-16 10:30:00,
2013-04-16 04:35:00,53.1,18.2,29.78,ENE,68,1.3,1.3,25,0.00,,---,0.00,VWS V14.01,2013-04-16 10:35:00,
2013-04-16 04:40:00,52.9,18.0,29.78,ESE,112,0.7,0.7,25,0.00,,---,0.00,VWS V14.01,2013-04-16 10:40:00,
2013-04-16 04:45:00,52.6,17.8,29.78,SE,135,0.4,0.4,25,0.00,,---,0.00,VWS V14.01,2013-04-16 10:45:00,
2013-04-16 04:50:00,52.7,17.9,29.78,ESE,112,0.7,0.7,25,0.00,,---,0.00,VWS V14.01,2013-04-16 10:50:00,
2013-04-16 04:55:00,52.9,17.1,29.78,ESE,112,0.7,0.7,24,0.00,,---,0.00,VWS V14.01,2013-04-16 10:55:00,
2013-04-16 05:00:00,52.9,17.1,29.78,ESE,112,1.3,1.3,24,0.00,,---,0.00,VWS V14.01,2013-04-16 11:00:00,
2013-04-16 05:05:00,53.3,17.5,29.78,ESE,112,1.8,1.8,24,0.00,,---,0.00,VWS V14.01,2013-04-16 11:05:00,
2013-04-16 05:10:00,53.3,17.5,29.78,ESE,112,0.7,0.7,24,0.00,,---,0.00,VWS V14.01,2013-04-16 11:10:00,
2013-04-16 05:15:00,52.9,17.1,29.78,ESE,112,1.8,1.8,24,0.00,,---,0.00,VWS V14.01,2013-04-16 11:15:00,
2013-04-16 05:20:00,52.9,17.1,29.78,ESE,112,1.8,1.8,24,0.00,,---,0.00,VWS V14.01,2013-04-16 11:20:00,
2013-04-16 05:25:00,53.1,17.3,29.78,SE,135,2.2,2.2,24,0.00,,---,0.00,VWS V14.01,2013-04-16 11:25:00,
2013-04-16 05:30:00,53.1,17.3,29.78,ESE,112,2.5,2.5,24,0.00,,---,0.00,VWS V14.01,2013-04-16 11:30:00,
2013-04-16 05:35:00,53.1,18.2,29.78,SE,135,2.5,2.5,25,0.00,,---,0.00,VWS V14.01,2013-04-16 11:35:00,
2013-04-16 05:40:00,53.1,18.2,29.78,ESE,112,1.8,1.8,25,0.00,,---,0.00,VWS V14.01,2013-04-16 11:40:00,
2013-04-16 05:45:00,53.1,18.2,29.79,SE,135,3.6,3.6,25,0.00,,---,0.00,VWS V14.01,2013-04-16 11:45:00,
2013-04-16 05:50:00,52.9,18.0,29.79,SSE,158,2.7,2.7,25,0.00,,---,0.00,VWS V14.01,2013-04-16 11:50:00,
2013-04-16 05:55:00,52.9,19.0,29.79,SE,135,1.8,1.8,26,0.00,,---,0.00,VWS V14.01,2013-04-16 11:55:00,
2013-04-16 06:00:00,52.7,19.7,29.79,SE,135,1.1,1.1,27,0.00,,---,0.00,VWS V14.01,2013-04-16 12:00:00,
2013-04-16 06:05:00,52.9,19.9,29.79,ESE,112,1.1,1.1,27,0.00,,---,0.00,VWS V14.01,2013-04-16 12:05:00,
2013-04-16 06:10:00,52.9,19.9,29.79,SE,135,1.8,1.8,27,0.00,,---,0.00,VWS V14.01,2013-04-16 12:10:00,
2013-04-16 06:15:00,52.9,19.9,29.79,SE,135,2.5,2.5,27,0.00,,---,0.00,VWS V14.01,2013-04-16 12:15:00,
2013-04-16 06:20:00,52.9,19.9,29.79,SE,135,2.5,2.5,27,0.00,,---,0.00,VWS V14.01,2013-04-16 12:20:00,
2013-04-16 06:25:00,52.9,19.9,29.79,SE,135,2.2,2.2,27,0.00,,---,0.00,VWS V14.01,2013-04-16 12:25:00,
2013-04-16 06:30:00,52.9,19.9,29.79,SE,135,2.5,2.5,27,0.00,,---,0.00,VWS V14.01,2013-04-16 12:30:00,
2013-04-16 06:35:00,53.1,20.0,29.79,ESE,112,3.4,3.4,27,0.00,,---,0.00,VWS V14.01,2013-04-16 12:35:00,
2013-04-16 06:40:00,53.6,20.5,29.79,SE,135,2.7,2.7,27,0.00,,---,0.00,VWS V14.01,2013-04-16 12:40:00,
2013-04-16 06:45:00,54.0,20.8,29.79,SE,135,4.0,4.0,27,0.00,,---,0.00,VWS V14.01,2013-04-16 12:45:00,
2013-04-16 06:50:00,54.0,20.8,29.80,SE,135,3.6,3.6,27,0.00,,---,0.00,VWS V14.01,2013-04-16 12:50:00,
2013-04-16 06:55:00,53.8,20.6,29.80,ESE,112,2.9,2.9,27,0.00,,---,0.00,VWS V14.01,2013-04-16 12:55:00,
2013-04-16 07:00:00,53.6,20.5,29.80,SE,135,2.5,2.5,27,0.00,,---,0.00,VWS V14.01,2013-04-16 13:00:00,
2013-04-16 07:05:00,53.5,21.2,29.80,SE,135,2.7,2.7,28,0.00,,---,0.00,VWS V14.01,2013-04-16 13:05:00,
2013-04-16 07:10:00,53.5,21.2,29.80,SE,135,1.8,1.8,28,0.00,,---,0.00,VWS V14.01,2013-04-16 13:10:00,
2013-04-16 07:15:00,54.2,21.8,29.80,SE,135,1.8,1.8,28,0.00,,---,0.00,VWS V14.01,2013-04-16 13:15:00,
2013-04-16 07:20:00,55.1,21.7,29.80,ESE,112,2.9,2.9,27,0.00,,---,0.00,VWS V14.01,2013-04-16 13:20:00,
2013-04-16 07:25:00,55.8,22.3,29.80,SSE,158,1.1,1.1,27,0.00,,---,0.00,VWS V14.01,2013-04-16 13:25:00,
2013-04-16 07:30:00,56.5,21.1,29.80,SSE,158,2.2,2.2,25,0.00,,---,0.00,VWS V14.01,2013-04-16 13:30:00,
2013-04-16 07:35:00,57.4,21.9,29.81,SSE,158,1.6,1.6,25,0.00,,---,0.00,VWS V14.01,2013-04-16 13:35:00,
2013-04-16 07:39:00,58.1,22.5,29.81,SSE,158,3.1,3.1,25,0.00,,---,0.00,VWS V14.01,2013-04-16 13:39:00,
2013-04-16 07:44:00,58.9,22.2,29.81,South,180,1.1,1.1,24,0.00,,---,0.00,VWS V14.01,2013-04-16 13:44:00,
2013-04-16 07:49:00,59.4,22.6,29.81,SE,135,2.7,2.7,24,0.00,,---,0.00,VWS V14.01,2013-04-16 13:49:00,
2013-04-16 07:54:00,59.8,23.0,29.81,SSE,158,2.2,2.2,24,0.00,,---,0.00,VWS V14.01,2013-04-16 13:54:00,
2013-04-16 07:59:00,60.1,23.2,29.81,SSE,158,2.2,2.2,24,0.00,,---,0.00,VWS V14.01,2013-04-16 13:59:00,
2013-04-16 08:04:00,60.5,22.5,29.81,SSE,158,2.5,2.5,23,0.00,,---,0.00,VWS V14.01,2013-04-16 14:04:00,
2013-04-16 08:09:00,60.7,22.7,29.81,SSE,158,4.0,4.0,23,0.00,,---,0.00,VWS V14.01,2013-04-16 14:09:00,
2013-04-16 08:14:00,60.8,22.8,29.81,SSE,158,2.5,2.5,23,0.00,,---,0.00,VWS V14.01,2013-04-16 14:14:00,
2013-04-16 08:19:00,61.4,23.3,29.81,South,180,1.8,1.8,23,0.00,,---,0.00,VWS V14.01,2013-04-16 14:19:00,
2013-04-16 08:24:00,61.7,23.5,29.81,South,180,3.4,3.4,23,0.00,,---,0.00,VWS V14.01,2013-04-16 14:24:00,
2013-04-16 08:29:00,62.1,24.9,29.81,SE,135,3.1,3.1,24,0.00,,---,0.00,VWS V14.01,2013-04-16 14:29:00,
2013-04-16 08:34:00,62.1,24.9,29.81,SSE,158,7.6,7.6,24,0.00,,---,0.00,VWS V14.01,2013-04-16 14:34:00,
2013-04-16 08:39:00,61.9,23.7,29.81,SSE,158,2.2,2.2,23,0.00,,---,0.00,VWS V14.01,2013-04-16 14:39:00,
2013-04-16 08:44:00,62.3,25.1,29.81,SE,135,1.1,1.1,24,0.00,,---,0.00,VWS V14.01,2013-04-16 14:44:00,
2013-04-16 08:49:00,62.6,24.3,29.80,SSE,158,5.1,5.1,23,0.00,,---,0.00,VWS V14.01,2013-04-16 14:49:00,
2013-04-16 08:54:00,62.8,24.5,29.80,SE,135,6.0,6.0,23,0.00,,---,0.00,VWS V14.01,2013-04-16 14:54:00,
2013-04-16 08:59:00,63.2,24.8,29.80,SSE,158,3.6,3.6,23,0.00,,---,0.00,VWS V14.01,2013-04-16 14:59:00,
2013-04-16 09:04:00,63.4,25.0,29.80,South,180,3.8,3.8,23,0.00,,---,0.00,VWS V14.01,2013-04-16 15:04:00,
2013-04-16 09:09:00,63.7,25.2,29.80,SSE,158,4.0,4.0,23,0.00,,---,0.00,VWS V14.01,2013-04-16 15:09:00,
2013-04-16 09:14:00,64.3,24.7,29.80,SSE,158,3.8,3.8,22,0.00,,---,0.00,VWS V14.01,2013-04-16 15:14:00,
2013-04-16 09:19:00,64.8,25.1,29.80,SW,225,4.0,4.0,22,0.00,,---,0.00,VWS V14.01,2013-04-16 15:19:00,
2013-04-16 09:24:00,64.8,25.1,29.80,SE,135,2.5,2.5,22,0.00,,---,0.00,VWS V14.01,2013-04-16 15:24:00,
2013-04-16 09:29:00,65.2,25.4,29.80,South,180,2.9,2.9,22,0.00,,---,0.00,VWS V14.01,2013-04-16 15:29:00,
2013-04-16 09:34:00,65.5,25.7,29.79,SSE,158,4.0,4.0,22,0.00,,---,0.00,VWS V14.01,2013-04-16 15:34:00,
2013-04-16 09:39:00,65.7,25.8,29.79,SSE,158,2.9,2.9,22,0.00,,---,0.00,VWS V14.01,2013-04-16 15:39:00,
2013-04-16 09:44:00,66.8,25.6,29.79,SSE,158,2.9,2.9,21,0.00,,---,0.00,VWS V14.01,2013-04-16 15:44:00,
2013-04-16 09:49:00,66.4,25.3,29.79,SSE,158,6.3,6.3,21,0.00,,---,0.00,VWS V14.01,2013-04-16 15:49:00,
2013-04-16 09:54:00,66.4,25.3,29.79,SSE,158,6.3,6.3,21,0.00,,---,0.00,VWS V14.01,2013-04-16 15:54:00,
2013-04-16 09:59:00,66.4,25.3,29.79,SSE,158,4.0,4.0,21,0.00,,---,0.00,VWS V14.01,2013-04-16 15:59:00,
2013-04-16 10:04:00,66.4,25.3,29.79,SE,135,3.1,3.1,21,0.00,,---,0.00,VWS V14.01,2013-04-16 16:04:00,
2013-04-16 10:09:00,67.1,23.5,29.79,SSE,158,4.5,4.5,19,0.00,,---,0.00,VWS V14.01,2013-04-16 16:09:00,
2013-04-16 10:14:00,67.5,23.8,29.79,ESE,112,7.2,7.2,19,0.00,,---,0.00,VWS V14.01,2013-04-16 16:14:00,
2013-04-16 10:19:00,67.3,23.7,29.78,SSE,158,3.6,3.6,19,0.00,,---,0.00,VWS V14.01,2013-04-16 16:19:00,
2013-04-16 10:24:00,67.1,23.5,29.79,ESE,112,4.9,4.9,19,0.00,,---,0.00,VWS V14.01,2013-04-16 16:24:00,
2013-04-16 10:29:00,67.3,23.7,29.78,SSW,202,5.8,5.8,19,0.00,,---,0.00,VWS V14.01,2013-04-16 16:29:00,
2013-04-16 10:34:00,67.9,24.1,29.78,South,180,4.7,4.7,19,0.00,,---,0.00,VWS V14.01,2013-04-16 16:34:00,
2013-04-16 10:39:00,68.2,24.4,29.78,SSE,158,1.6,1.6,19,0.00,,---,0.00,VWS V14.01,2013-04-16 16:39:00,
2013-04-16 10:44:00,68.9,23.7,29.78,South,180,3.4,3.4,18,0.00,,---,0.00,VWS V14.01,2013-04-16 16:44:00,
2013-04-16 10:49:00,68.6,23.4,29.78,SSW,202,2.5,2.5,18,0.00,,---,0.00,VWS V14.01,2013-04-16 16:49:00,
2013-04-16 10:54:00,69.1,23.9,29.78,SE,135,5.4,5.4,18,0.00,,---,0.00,VWS V14.01,2013-04-16 16:54:00,
2013-04-16 10:59:00,68.6,23.4,29.78,South,180,4.7,4.7,18,0.00,,---,0.00,VWS V14.01,2013-04-16 16:59:00,
2013-04-16 11:04:00,69.3,24.0,29.78,South,180,6.9,6.9,18,0.00,,---,0.00,VWS V14.01,2013-04-16 17:04:00,
2013-04-16 11:09:00,70.2,23.4,29.77,SSE,158,13.6,13.6,17,0.00,,---,0.00,VWS V14.01,2013-04-16 17:09:00,
2013-04-16 11:14:00,69.7,21.5,29.77,SSE,158,7.6,7.6,16,0.00,,---,0.00,VWS V14.01,2013-04-16 17:14:00,
2013-04-16 11:19:00,69.5,22.8,29.77,SSE,158,4.0,4.0,17,0.00,,---,0.00,VWS V14.01,2013-04-16 17:19:00,
2013-04-16 11:24:00,69.1,21.1,29.77,South,180,11.6,11.6,16,0.00,,---,0.00,VWS V14.01,2013-04-16 17:24:00,
2013-04-16 11:29:00,69.5,24.2,29.77,SSE,158,4.0,4.0,18,0.00,,---,0.00,VWS V14.01,2013-04-16 17:29:00,
2013-04-16 11:34:00,71.1,22.7,29.77,SSE,158,2.9,2.9,16,0.00,,---,0.00,VWS V14.01,2013-04-16 17:34:00,
2013-04-16 11:39:00,70.6,20.7,29.76,SSW,202,6.5,6.5,15,0.00,,---,0.00,VWS V14.01,2013-04-16 17:39:00,
2013-04-16 11:44:00,70.2,21.9,29.76,SW,225,8.5,8.5,16,0.00,,---,0.00,VWS V14.01,2013-04-16 17:44:00,
2013-04-16 11:49:00,70.9,21.0,29.76,South,180,7.6,7.6,15,0.00,,---,0.00,VWS V14.01,2013-04-16 17:49:00,
2013-04-16 11:54:00,70.2,21.9,29.76,SW,225,9.8,9.8,16,0.00,,---,0.00,VWS V14.01,2013-04-16 17:54:00,
2013-04-16 11:59:00,70.7,22.3,29.76,South,180,4.7,4.7,16,0.00,,---,0.00,VWS V14.01,2013-04-16 17:59:00,
2013-04-16 12:04:00,71.6,23.1,29.76,SE,135,6.3,6.3,16,0.00,,---,0.00,VWS V14.01,2013-04-16 18:04:00,
2013-04-16 12:09:00,71.6,23.1,29.75,SSE,158,4.7,4.7,16,0.00,,---,0.00,VWS V14.01,2013-04-16 18:09:00,
2013-04-16 12:14:00,70.9,22.5,29.75,South,180,2.5,2.5,16,0.00,,---,0.00,VWS V14.01,2013-04-16 18:14:00,
2013-04-16 12:19:00,71.8,23.2,29.75,SSE,158,9.2,9.2,16,0.00,,---,0.00,VWS V14.01,2013-04-16 18:19:00,
2013-04-16 12:24:00,71.8,23.2,29.75,SSE,158,4.7,4.7,16,0.00,,---,0.00,VWS V14.01,2013-04-16 18:24:00,
2013-04-16 12:29:00,72.5,22.3,29.74,SSW,202,3.4,3.4,15,0.00,,---,0.00,VWS V14.01,2013-04-16 18:29:00,
2013-04-16 12:34:00,72.4,22.2,29.74,SSW,202,10.5,10.5,15,0.00,,---,0.00,VWS V14.01,2013-04-16 18:34:00,
2013-04-16 12:39:00,72.0,21.9,29.74,SW,225,5.8,5.8,15,0.00,,---,0.00,VWS V14.01,2013-04-16 18:39:00,
2013-04-16 12:44:00,72.2,22.0,29.74,SSE,158,7.4,7.4,15,0.00,,---,0.00,VWS V14.01,2013-04-16 18:44:00,
2013-04-16 12:49:00,72.0,21.9,29.74,South,180,11.4,11.4,15,0.00,,---,0.00,VWS V14.01,2013-04-16 18:49:00,
2013-04-16 12:54:00,71.8,21.7,29.74,SSW,202,8.9,8.9,15,0.00,,---,0.00,VWS V14.01,2013-04-16 18:54:00,
2013-04-16 12:59:00,72.0,21.9,29.73,South,180,3.6,3.6,15,0.00,,---,0.00,VWS V14.01,2013-04-16 18:59:00,
2013-04-16 13:04:00,72.4,22.2,29.73,SSE,158,10.5,10.5,15,0.00,,---,0.00,VWS V14.01,2013-04-16 19:04:00,
2013-04-16 13:09:00,72.4,22.2,29.73,South,180,10.7,10.7,15,0.00,,---,0.00,VWS V14.01,2013-04-16 19:09:00,
2013-04-16 13:14:00,72.5,20.6,29.73,South,180,11.4,11.4,14,0.00,,---,0.00,VWS V14.01,2013-04-16 19:14:00,
2013-04-16 13:19:00,72.5,22.3,29.72,South,180,4.0,4.0,15,0.00,,---,0.00,VWS V14.01,2013-04-16 19:19:00,
2013-04-16 13:24:00,73.3,19.5,29.72,ESE,112,10.5,10.5,13,0.00,,---,0.00,VWS V14.01,2013-04-16 19:24:00,
2013-04-16 13:29:00,73.6,21.5,29.72,SSE,158,14.1,14.1,14,0.00,,---,0.00,VWS V14.01,2013-04-16 19:29:00,
2013-04-16 13:34:00,73.6,19.8,29.71,South,180,8.5,11.4,13,0.00,,---,0.00,VWS V14.01,2013-04-16 19:34:00,
2013-04-16 13:39:00,73.8,19.9,29.71,SSE,158,8.3,8.3,13,0.00,,---,0.00,VWS V14.01,2013-04-16 19:39:00,
2013-04-16 13:44:00,74.0,20.1,29.70,SW,225,7.6,7.6,13,0.00,,---,0.00,VWS V14.01,2013-04-16 19:44:00,
2013-04-16 13:49:00,74.2,20.2,29.70,SSE,158,12.1,12.1,13,0.00,,---,0.00,VWS V14.01,2013-04-16 19:49:00,
2013-04-16 13:54:00,74.9,16.9,29.70,South,180,10.3,10.3,11,0.00,,---,0.00,VWS V14.01,2013-04-16 19:54:00,
2013-04-16 13:59:00,75.6,17.4,29.69,South,180,9.6,9.6,11,0.00,,---,0.00,VWS V14.01,2013-04-16 19:59:00,
2013-04-16 14:04:00,75.8,15.4,29.69,South,180,10.5,10.5,10,0.00,,---,0.00,VWS V14.01,2013-04-16 20:04:00,
2013-04-16 14:09:00,75.6,17.4,29.69,SSE,158,11.6,11.6,11,0.00,,---,0.00,VWS V14.01,2013-04-16 20:09:00,
2013-04-16 14:14:00,75.4,17.3,29.69,South,180,8.5,8.5,11,0.00,,---,0.00,VWS V14.01,2013-04-16 20:14:00,
2013-04-16 14:19:00,75.6,17.4,29.69,SSE,158,10.3,10.3,11,0.00,,---,0.00,VWS V14.01,2013-04-16 20:19:00,
2013-04-16 14:24:00,76.0,17.7,29.69,SSW,202,13.4,13.4,11,0.00,,---,0.00,VWS V14.01,2013-04-16 20:24:00,
2013-04-16 14:29:00,76.3,15.8,29.69,SSE,158,14.1,14.1,10,0.00,,---,0.00,VWS V14.01,2013-04-16 20:29:00,
2013-04-16 14:34:00,76.1,15.6,29.69,South,180,9.8,9.8,10,0.00,,---,0.00,VWS V14.01,2013-04-16 20:34:00,
2013-04-16 14:39:00,76.1,17.8,29.69,SSE,158,8.1,8.1,11,0.00,,---,0.00,VWS V14.01,2013-04-16 20:39:00,
2013-04-16 14:44:00,76.0,15.6,29.69,South,180,9.8,9.8,10,0.00,,---,0.00,VWS V14.01,2013-04-16 20:44:00,
2013-04-16 14:49:00,76.0,15.6,29.69,SSW,202,12.8,12.8,10,0.00,,---,0.00,VWS V14.01,2013-04-16 20:49:00,
2013-04-16 14:54:00,76.3,15.8,29.69,SSW,202,11.2,11.2,10,0.00,,---,0.00,VWS V14.01,2013-04-16 20:54:00,
2013-04-16 14:59:00,76.1,15.6,29.69,South,180,8.3,8.3,10,0.00,,---,0.00,VWS V14.01,2013-04-16 20:59:00,
2013-04-16 15:04:00,76.1,15.6,29.69,SSW,202,14.1,14.1,10,0.00,,---,0.00,VWS V14.01,2013-04-16 21:04:00,
2013-04-16 15:09:00,76.0,15.6,29.69,South,180,7.2,7.2,10,0.00,,---,0.00,VWS V14.01,2013-04-16 21:09:00,
2013-04-16 15:14:00,77.4,16.6,29.68,South,180,11.4,11.4,10,0.00,,---,0.00,VWS V14.01,2013-04-16 21:14:00,
2013-04-16 15:19:00,77.4,16.6,29.68,South,180,4.7,4.7,10,0.00,,---,0.00,VWS V14.01,2013-04-16 21:19:00,
2013-04-16 15:24:00,78.1,12.1,29.67,SSE,158,9.8,9.8,8,0.00,,---,0.00,VWS V14.01,2013-04-16 21:24:00,
2013-04-16 15:29:00,78.5,12.4,29.67,South,180,9.2,9.2,8,0.00,,---,0.00,VWS V14.01,2013-04-16 21:29:00,
2013-04-16 15:34:00,78.5,12.4,29.67,SE,135,13.0,13.0,8,0.00,,---,0.00,VWS V14.01,2013-04-16 21:34:00,
2013-04-16 15:39:00,78.7,12.5,29.67,SSW,202,8.5,8.5,8,0.00,,---,0.00,VWS V14.01,2013-04-16 21:39:00,
2013-04-16 15:44:00,78.8,12.6,29.67,South,180,11.4,11.4,8,0.00,,---,0.00,VWS V14.01,2013-04-16 21:44:00,
2013-04-16 15:49:00,79.0,12.7,29.67,SSW,202,5.8,5.8,8,0.00,,---,0.00,VWS V14.01,2013-04-16 21:49:00,
2013-04-16 15:54:00,79.0,12.7,29.67,South,180,20.4,20.4,8,0.00,,---,0.00,VWS V14.01,2013-04-16 21:54:00,
2013-04-16 15:59:00,79.2,9.9,29.66,SSE,158,7.6,7.6,7,0.00,,---,0.00,VWS V14.01,2013-04-16 21:59:00,
2013-04-16 16:04:00,78.8,12.6,29.66,SSE,158,8.9,8.9,8,0.00,,---,0.00,VWS V14.01,2013-04-16 22:04:00,
2013-04-16 16:09:00,79.0,12.7,29.66,South,180,3.1,3.1,8,0.00,,---,0.00,VWS V14.01,2013-04-16 22:09:00,
2013-04-16 16:14:00,78.8,12.6,29.66,SSW,202,14.5,14.5,8,0.00,,---,0.00,VWS V14.01,2013-04-16 22:14:00,
2013-04-16 16:19:00,78.8,12.6,29.66,South,180,8.5,8.5,8,0.00,,---,0.00,VWS V14.01,2013-04-16 22:19:00,
2013-04-16 16:24:00,79.6,6.8,29.65,SSW,202,18.6,18.6,6,0.00,,---,0.00,VWS V14.01,2013-04-16 22:24:00,
2013-04-16 16:29:00,79.7,6.8,29.66,South,180,9.6,9.6,6,0.00,,---,0.00,VWS V14.01,2013-04-16 22:29:00,
2013-04-16 16:34:00,79.9,7.0,29.66,South,180,9.4,9.4,6,0.00,,---,0.00,VWS V14.01,2013-04-16 22:34:00,
2013-04-16 16:39:00,80.3,7.2,29.65,SSW,202,9.6,9.6,6,0.00,,---,0.00,VWS V14.01,2013-04-16 22:39:00,
2013-04-16 16:44:00,80.3,7.2,29.65,SSW,202,12.3,12.3,6,0.00,,---,0.00,VWS V14.01,2013-04-16 22:44:00,
2013-04-16 16:49:00,80.1,7.1,29.66,SSW,202,8.3,8.3,6,0.00,,---,0.00,VWS V14.01,2013-04-16 22:49:00,
2013-04-16 16:54:00,80.1,3.1,29.65,South,180,11.0,11.0,5,0.00,,---,0.00,VWS V14.01,2013-04-16 22:54:00,
2013-04-16 16:59:00,80.3,3.3,29.66,SSW,202,7.6,7.6,5,0.00,,---,0.00,VWS V14.01,2013-04-16 22:59:00,
2013-04-16 17:04:00,80.3,3.3,29.66,South,180,7.6,7.6,5,0.00,,---,0.00,VWS V14.01,2013-04-16 23:04:00,
2013-04-16 17:09:00,79.0,2.4,29.66,SW,225,11.2,11.2,5,0.00,,---,0.00,VWS V14.01,2013-04-16 23:09:00,
2013-04-16 17:14:00,79.2,2.5,29.66,SSW,202,18.6,18.6,5,0.00,,---,0.00,VWS V14.01,2013-04-16 23:14:00,
2013-04-16 17:19:00,79.4,2.6,29.66,SSW,202,13.4,13.4,5,0.00,,---,0.00,VWS V14.01,2013-04-16 23:19:00,
2013-04-16 17:24:00,79.2,2.5,29.66,South,180,20.1,20.1,5,0.00,,---,0.00,VWS V14.01,2013-04-16 23:24:00,
2013-04-16 17:29:00,79.2,2.5,29.66,SSW,202,8.7,8.7,5,0.00,,---,0.00,VWS V14.01,2013-04-16 23:29:00,
2013-04-16 17:34:00,79.2,6.5,29.66,SW,225,9.2,9.2,6,0.00,,---,0.00,VWS V14.01,2013-04-16 23:34:00,
2013-04-16 17:39:00,79.0,6.3,29.67,SSW,202,14.3,14.3,6,0.00,,---,0.00,VWS V14.01,2013-04-16 23:39:00,
2013-04-16 17:44:00,78.5,5.9,29.67,SW,225,9.2,9.2,6,0.00,,---,0.00,VWS V14.01,2013-04-16 23:44:00,
2013-04-16 17:49:00,78.5,5.9,29.66,SSW,202,7.6,7.6,6,0.00,,---,0.00,VWS V14.01,2013-04-16 23:49:00,
2013-04-16 17:54:00,78.5,5.9,29.67,South,180,6.5,6.5,6,0.00,,---,0.00,VWS V14.01,2013-04-16 23:54:00,
2013-04-16 17:59:00,78.7,6.1,29.67,SW,225,12.1,12.1,6,0.00,,---,0.00,VWS V14.01,2013-04-16 23:59:00,
2013-04-16 18:04:00,78.1,5.7,29.67,SSW,202,7.8,7.8,6,0.00,,---,0.00,VWS V14.01,2013-04-17 00:04:00,
2013-04-16 18:09:00,77.9,5.5,29.67,SW,225,12.3,12.3,6,0.00,,---,0.00,VWS V14.01,2013-04-17 00:09:00,
2013-04-16 18:14:00,77.6,5.3,29.67,South,180,9.6,9.6,6,0.00,,---,0.00,VWS V14.01,2013-04-17 00:14:00,
2013-04-16 18:19:00,77.6,5.3,29.67,SW,225,13.6,13.6,6,0.00,,---,0.00,VWS V14.01,2013-04-17 00:19:00,
2013-04-16 18:24:00,77.4,5.2,29.67,SSE,158,12.1,12.1,6,0.00,,---,0.00,VWS V14.01,2013-04-17 00:24:00,
2013-04-16 18:29:00,77.0,8.3,29.67,South,180,13.4,13.4,7,0.00,,---,0.00,VWS V14.01,2013-04-17 00:29:00,
2013-04-16 18:34:00,77.0,8.3,29.67,SSW,202,8.5,8.5,7,0.00,,---,0.00,VWS V14.01,2013-04-17 00:34:00,
2013-04-16 18:39:00,77.0,8.3,29.68,SSE,158,9.6,9.6,7,0.00,,---,0.00,VWS V14.01,2013-04-17 00:39:00,
2013-04-16 18:44:00,76.5,7.9,29.67,South,180,18.1,18.1,7,0.00,,---,0.00,VWS V14.01,2013-04-17 00:44:00,
2013-04-16 18:49:00,76.3,7.7,29.68,SSW,202,6.0,6.0,7,0.00,,---,0.00,VWS V14.01,2013-04-17 00:49:00,
2013-04-16 18:54:00,76.0,7.5,29.68,SSW,202,10.7,10.7,7,0.00,,---,0.00,VWS V14.01,2013-04-17 00:54:00,
2013-04-16 18:59:00,75.6,7.2,29.68,SSW,202,14.3,14.3,7,0.00,,---,0.00,VWS V14.01,2013-04-17 00:59:00,
2013-04-16 19:04:00,75.2,6.9,29.68,SSW,202,10.7,10.7,7,0.00,,---,0.00,VWS V14.01,2013-04-17 01:04:00,
2013-04-16 19:09:00,75.2,6.9,29.68,SSW,202,17.2,17.2,7,0.00,,---,0.00,VWS V14.01,2013-04-17 01:09:00,
2013-04-16 19:14:00,74.7,6.6,29.68,South,180,10.5,10.5,7,0.00,,---,0.00,VWS V14.01,2013-04-17 01:14:00,
2013-04-16 19:19:00,74.5,6.4,29.68,South,180,8.1,8.1,7,0.00,,---,0.00,VWS V14.01,2013-04-17 01:19:00,
2013-04-16 19:24:00,74.2,6.2,29.68,SSW,202,14.5,14.5,7,0.00,,---,0.00,VWS V14.01,2013-04-17 01:24:00,
2013-04-16 19:29:00,73.6,5.8,29.68,SSW,202,8.1,8.1,7,0.00,,---,0.00,VWS V14.01,2013-04-17 01:29:00,
2013-04-16 19:34:00,73.1,5.4,29.69,SW,225,10.1,10.1,7,0.00,,---,0.00,VWS V14.01,2013-04-17 01:34:00,
2013-04-16 19:39:00,72.5,7.9,29.69,SSW,202,8.1,8.1,8,0.00,,---,0.00,VWS V14.01,2013-04-17 01:39:00,
2013-04-16 19:44:00,72.2,7.7,29.69,South,180,5.8,5.8,8,0.00,,---,0.00,VWS V14.01,2013-04-17 01:44:00,
2013-04-16 19:49:00,71.8,7.4,29.69,SW,225,6.7,6.7,8,0.00,,---,0.00,VWS V14.01,2013-04-17 01:49:00,
2013-04-16 19:54:00,71.6,7.2,29.69,SSW,202,5.8,5.8,8,0.00,,---,0.00,VWS V14.01,2013-04-17 01:54:00,
2013-04-16 19:59:00,71.3,7.0,29.70,SSW,202,10.1,10.1,8,0.00,,---,0.00,VWS V14.01,2013-04-17 01:59:00,
2013-04-16 20:04:00,71.1,6.8,29.70,SSW,202,11.4,11.4,8,0.00,,---,0.00,VWS V14.01,2013-04-17 02:04:00,
2013-04-16 20:09:00,70.9,6.7,29.70,SSW,202,9.2,9.2,8,0.00,,---,0.00,VWS V14.01,2013-04-17 02:09:00,
2013-04-16 20:14:00,70.7,6.5,29.70,SSE,158,11.4,11.4,8,0.00,,---,0.00,VWS V14.01,2013-04-17 02:14:00,
2013-04-16 20:19:00,70.6,6.5,29.70,SSW,202,7.8,7.8,8,0.00,,---,0.00,VWS V14.01,2013-04-17 02:19:00,
2013-04-16 20:24:00,70.4,6.3,29.70,SW,225,8.3,8.3,8,0.00,,---,0.00,VWS V14.01,2013-04-17 02:24:00,
2013-04-16 20:29:00,70.4,6.3,29.71,WSW,248,8.9,8.9,8,0.00,,---,0.00,VWS V14.01,2013-04-17 02:29:00,
2013-04-16 20:34:00,70.2,6.2,29.71,SSW,202,6.0,6.0,8,0.00,,---,0.00,VWS V14.01,2013-04-17 02:34:00,
2013-04-16 20:39:00,70.0,6.0,29.71,SSW,202,6.3,6.3,8,0.00,,---,0.00,VWS V14.01,2013-04-17 02:39:00,
2013-04-16 20:44:00,69.8,5.9,29.71,SSE,158,5.4,5.4,8,0.00,,---,0.00,VWS V14.01,2013-04-17 02:44:00,
2013-04-16 20:49:00,69.5,5.6,29.72,SSW,202,8.9,8.9,8,0.00,,---,0.00,VWS V14.01,2013-04-17 02:49:00,
2013-04-16 20:54:00,69.3,5.5,29.72,SW,225,6.7,6.7,8,0.00,,---,0.00,VWS V14.01,2013-04-17 02:54:00,
2013-04-16 20:59:00,68.9,5.2,29.72,SSW,202,5.8,5.8,8,0.00,,---,0.00,VWS V14.01,2013-04-17 02:59:00,
2013-04-16 21:04:00,68.6,9.9,29.73,South,180,4.3,4.3,10,0.00,,---,0.00,VWS V14.01,2013-04-17 03:04:00,
2013-04-16 21:09:00,68.4,9.7,29.73,South,180,2.7,4.7,10,0.00,,---,0.00,VWS V14.01,2013-04-17 03:09:00,
2013-04-16 21:14:00,68.0,9.4,29.73,South,180,1.3,1.3,10,0.00,,---,0.00,VWS V14.01,2013-04-17 03:14:00,
2013-04-16 21:19:00,67.7,9.2,29.73,South,180,3.1,3.1,10,0.00,,---,0.00,VWS V14.01,2013-04-17 03:19:00,
2013-04-16 21:23:00,67.5,9.1,29.73,SSW,202,5.4,5.4,10,0.00,,---,0.00,VWS V14.01,2013-04-17 03:23:00,
2013-04-16 21:28:00,67.1,8.7,29.73,South,180,2.2,2.2,10,0.00,,---,0.00,VWS V14.01,2013-04-17 03:28:00,
2013-04-16 21:33:00,67.0,8.7,29.73,South,180,2.9,2.9,10,0.00,,---,0.00,VWS V14.01,2013-04-17 03:33:00,
2013-04-16 21:38:00,66.4,8.2,29.73,SW,225,3.4,3.4,10,0.00,,---,0.00,VWS V14.01,2013-04-17 03:38:00,
2013-04-16 21:43:00,66.2,10.2,29.73,WSW,248,3.4,3.4,11,0.00,,---,0.00,VWS V14.01,2013-04-17 03:43:00,
2013-04-16 21:48:00,66.1,10.1,29.74,SSW,202,3.1,3.1,11,0.00,,---,0.00,VWS V14.01,2013-04-17 03:48:00,
2013-04-16 21:53:00,65.9,7.8,29.74,South,180,3.1,3.1,10,0.00,,---,0.00,VWS V14.01,2013-04-17 03:53:00,
2013-04-16 21:58:00,65.7,9.8,29.74,South,180,1.1,1.1,11,0.00,,---,0.00,VWS V14.01,2013-04-17 03:58:00,
2013-04-16 22:00:00,65.5,9.6,29.74,South,180,2.0,2.0,11,0.00,,---,0.00,VWS V14.01,2013-04-17 04:00:00,
2013-04-16 22:05:00,64.8,9.1,29.74,SE,135,2.0,2.0,11,0.00,,---,0.00,VWS V14.01,2013-04-17 04:05:00,
2013-04-16 22:10:00,63.7,10.2,29.74,SE,135,2.5,2.5,12,0.00,,---,0.00,VWS V14.01,2013-04-17 04:10:00,
2013-04-16 22:15:00,63.2,9.8,29.74,SSE,158,2.5,2.5,12,0.00,,---,0.00,VWS V14.01,2013-04-17 04:15:00,
2013-04-16 22:20:00,63.0,9.6,29.74,SSE,158,1.3,1.3,12,0.00,,---,0.00,VWS V14.01,2013-04-17 04:20:00,
2013-04-16 22:25:00,63.0,9.6,29.74,SSE,158,1.8,1.8,12,0.00,,---,0.00,VWS V14.01,2013-04-17 04:25:00,
2013-04-16 22:30:00,62.6,9.3,29.74,SSE,158,1.8,1.8,12,0.00,,---,0.00,VWS V14.01,2013-04-17 04:30:00,
2013-04-16 22:35:00,62.6,9.3,29.75,SE,135,0.9,0.9,12,0.00,,---,0.00,VWS V14.01,2013-04-17 04:35:00,
2013-04-16 22:40:00,62.1,8.9,29.74,SSE,158,1.3,1.3,12,0.00,,---,0.00,VWS V14.01,2013-04-17 04:40:00,
2013-04-16 22:45:00,61.7,8.6,29.74,SSE,158,1.3,1.3,12,0.00,,---,0.00,VWS V14.01,2013-04-17 04:45:00,
2013-04-16 22:50:00,61.4,10.1,29.74,SE,135,2.5,2.5,13,0.00,,---,0.00,VWS V14.01,2013-04-17 04:50:00,
2013-04-16 22:55:00,61.0,9.8,29.74,SE,135,1.6,1.6,13,0.00,,---,0.00,VWS V14.01,2013-04-17 04:55:00,
2013-04-16 23:00:00,60.7,9.6,29.74,SSE,158,1.8,1.8,13,0.00,,---,0.00,VWS V14.01,2013-04-17 05:00:00,
2013-04-16 23:05:00,60.5,9.4,29.74,SSE,158,2.9,2.9,13,0.00,,---,0.00,VWS V14.01,2013-04-17 05:05:00,
2013-04-16 23:10:00,60.3,9.3,29.74,SSE,158,1.1,1.1,13,0.00,,---,0.00,VWS V14.01,2013-04-17 05:10:00,
2013-04-16 23:15:00,60.3,9.3,29.74,SE,135,2.2,2.2,13,0.00,,---,0.00,VWS V14.01,2013-04-17 05:15:00,
2013-04-16 23:20:00,60.1,9.1,29.75,SSE,158,3.1,3.1,13,0.00,,---,0.00,VWS V14.01,2013-04-17 05:20:00,
2013-04-16 23:25:00,59.9,9.0,29.74,SE,135,3.4,3.4,13,0.00,,---,0.00,VWS V14.01,2013-04-17 05:25:00,
2013-04-16 23:30:00,59.6,8.7,29.74,SE,135,2.0,2.0,13,0.00,,---,0.00,VWS V14.01,2013-04-17 05:30:00,
2013-04-16 23:35:00,59.4,8.6,29.74,SE,135,3.4,3.4,13,0.00,,---,0.00,VWS V14.01,2013-04-17 05:35:00,
2013-04-16 23:40:00,59.2,8.4,29.75,ESE,112,1.8,1.8,13,0.00,,---,0.00,VWS V14.01,2013-04-17 05:40:00,
2013-04-16 23:45:00,59.0,11.4,29.75,SSE,158,1.8,1.8,15,0.00,,---,0.00,VWS V14.01,2013-04-17 05:45:00,
2013-04-16 23:50:00,58.7,11.2,29.74,SSE,158,2.9,2.9,15,0.00,,---,0.00,VWS V14.01,2013-04-17 05:50:00,
2013-04-16 23:55:00,58.7,11.2,29.74,SSE,158,3.4,3.4,15,0.00,,---,0.00,VWS V14.01,2013-04-17 05:55:00,